Location: Newark
(48.8656°N, 2.3211°E)
Time: 05:58:58
(UTC+00:00)

Envisat - Pass Details

Date: 14 December 2019
Orbit: 764 x 766 km, 98.1° (Epoch: 20 January)

Event Time Altitude Azimuth Distance (km) Brightness Sun altitude
Rises 18:27:58 0° 191° (S) 3,221 6.5 -24.1°
Reaches altitude 10° 18:30:28 10° 201° (SSW) 2,300 5.8 -24.5°
Maximum altitude 18:35:02 33° 265° (W) 1,266 4.7 -25.3°
Drops below altitude 10° 18:39:38 10° 329° (NNW) 2,315 5.7 -26.0°
Sets 18:42:10 0° 339° (NNW) 3,246 6.4 -26.4°
